Saipan, MP

3:21 PM ChST on August 24, 2016 (GMT +1000)
Saipan International

Weather History for PGSN - November, 2012

Change the Weather History Date:

Friday, November 16, 2012

  Actual Average Record
Temperature  
Mean Temperature 84 °F -  
Max Temperature 89 °F 84 °F 89 °F (2012)
Min Temperature 78 °F 76 °F 73 °F (2014)
Cooling Degree Days 18    
Growing Degree Days 34 (Base 50)    
Moisture  
Dew Point 75 °F    
Average Humidity 76    
Maximum Humidity 90    
Minimum Humidity 62    
Precipitation  
Precipitation 0.26 in - - ()
Sea Level Pressure  
Sea Level Pressure 29.97 in    
Wind  
Wind Speed 14 mph (NE)    
Max Wind Speed 18 mph    
Max Gust Speed 26 mph    
Visibility 10 miles    
Events Rain    
Averages and records for this station are not official NWS values.
T = Trace of Precipitation, MM = Missing Value Source: NWS Daily Summary

Daily Weather History Graph

Daily Weather History Graph

Search for Another Location

Airport or City:

Trip Planner

Search our weather history database for the weather conditions in past years. The results will help you decide how hot, cold, wet, or windy it might be!

Date:

Astronomy

Nov. 16, 2012 Rise Set
Actual Time 6:19 AM ChST 5:44 PM ChST
Civil Twilight 5:56 AM ChST 6:06 PM ChST
Nautical Twilight 5:30 AM ChST 6:32 PM ChST
Astronomical Twilight 5:04 AM ChST 6:58 PM ChST
Moon 8:26 AM ChST (11/16) 8:07 PM ChST (11/16)
Length of Visible Light 12h 10m
Length of Day
11h 25m
Waxing Crescent, 7% of the Moon is Illuminated
Nov 16
Waxing Crescent
Nov 21
First Quarter
Nov 29
Full
Dec 7
Last Quarter
Dec 13
New

Hourly Weather History & Observations

Time (ChST) Temp. Heat Index Dew Point Humidity Pressure Visibility Wind Dir Wind Speed Gust Speed Precip Events Conditions
12:54 AM 82.9 °F 90.2 °F 75.0 °F 77% 29.99 in 10.0 mi NE 15.0 mph - N/A   Mostly Cloudy
1:54 AM 82.0 °F 89.4 °F 75.9 °F 82% 29.98 in 10.0 mi NE 11.5 mph - N/A   Scattered Clouds
2:54 AM 78.1 °F - 73.9 °F 87% 29.97 in 10.0 mi NE 10.4 mph - 0.12 in   Overcast
3:54 AM 78.8 °F - 73.0 °F 82% 29.96 in 10.0 mi NNE 10.4 mph - N/A   Scattered Clouds
4:54 AM 78.1 °F - 75.0 °F 90% 29.97 in 10.0 mi NE 12.7 mph - N/A   Scattered Clouds
5:54 AM 81.0 °F 86.7 °F 75.0 °F 82% 29.99 in 10.0 mi East 15.0 mph - 0.00 in Rain Light Rain
6:54 AM 82.0 °F 88.6 °F 75.0 °F 79% 30.01 in 10.0 mi NE 13.8 mph - 0.00 in   Mostly Cloudy
7:54 AM 82.9 °F 90.8 °F 75.9 °F 79% 30.03 in 10.0 mi NE 16.1 mph - 0.00 in   Mostly Cloudy
8:42 AM 82.4 °F 90.9 °F 77.0 °F 84% 29.98 in 7.0 mi ENE 10.4 mph - 0.02 in Rain Heavy Rain
8:49 AM 82.4 °F 90.9 °F 77.0 °F 84% 29.98 in 7.0 mi ENE 17.3 mph 24.2 mph 0.13 in Rain Light Rain
8:54 AM 81.0 °F 86.2 °F 73.9 °F 79% 30.05 in 7.0 mi ENE 18.4 mph 26.5 mph 0.13 in   Overcast
9:54 AM 84.0 °F 91.9 °F 75.0 °F 74% 30.05 in 6.0 mi NE 12.7 mph 20.7 mph 0.01 in Rain Light Rain
10:54 AM 88.0 °F 100.2 °F 77.0 °F 70% 30.03 in 10.0 mi ENE 15.0 mph 20.7 mph N/A   Partly Cloudy
11:24 AM 87.8 °F 97.6 °F 75.2 °F 66% 29.96 in 10.0 mi NE 15.0 mph - N/A   Mostly Cloudy
11:54 AM 89.1 °F 101.4 °F 77.0 °F 67% 30.01 in 10.0 mi ENE 18.4 mph - N/A   Scattered Clouds
12:54 PM 89.1 °F 99.1 °F 75.0 °F 63% 29.99 in 10.0 mi NE 17.3 mph - N/A   Scattered Clouds
1:07 PM 87.8 °F 97.6 °F 75.2 °F 66% 29.92 in 10.0 mi NE 18.4 mph - N/A   Mostly Cloudy
1:39 PM 89.6 °F 99.8 °F 75.2 °F 62% 29.91 in 10.0 mi ENE 16.1 mph - N/A   Scattered Clouds
1:54 PM 88.0 °F 97.5 °F 75.0 °F 65% 29.96 in 10.0 mi ENE 18.4 mph - N/A   Scattered Clouds
2:54 PM 87.1 °F 97.3 °F 75.9 °F 69% 29.95 in 10.0 mi ENE 18.4 mph - N/A   Partly Cloudy
3:54 PM 84.9 °F 93.3 °F 75.0 °F 72% 29.95 in 10.0 mi ENE 15.0 mph - N/A   Mostly Cloudy
4:06 PM 84.2 °F 92.3 °F 75.2 °F 74% 29.89 in 10.0 mi ENE 12.7 mph - N/A   Mostly Cloudy
4:37 PM 84.2 °F 92.3 °F 75.2 °F 74% 29.89 in 10.0 mi NE 16.1 mph - N/A   Mostly Cloudy
4:54 PM 84.0 °F 91.2 °F 73.9 °F 72% 29.96 in 10.0 mi NE 16.1 mph - N/A   Scattered Clouds
5:54 PM 82.9 °F 90.2 °F 75.0 °F 77% 29.96 in 10.0 mi NE 13.8 mph - N/A   Mostly Cloudy
6:54 PM 82.9 °F 90.2 °F 75.0 °F 77% 29.98 in 10.0 mi NE 16.1 mph 21.9 mph N/A   Mostly Cloudy
7:11 PM 82.4 °F 89.5 °F 75.2 °F 79% 29.92 in 10.0 mi NE 15.0 mph - N/A   Mostly Cloudy
7:21 PM 82.4 °F 89.5 °F 75.2 °F 79% 29.92 in 10.0 mi NE 16.1 mph - N/A   Scattered Clouds
7:54 PM 82.9 °F 90.2 °F 75.0 °F 77% 29.99 in 10.0 mi NE 15.0 mph 21.9 mph N/A   Mostly Cloudy
8:54 PM 82.9 °F 90.2 °F 75.0 °F 77% 30.01 in 10.0 mi NE 15.0 mph - N/A   Scattered Clouds
9:54 PM 82.0 °F 88.6 °F 75.0 °F 79% 30.01 in 10.0 mi NE 15.0 mph - N/A   Partly Cloudy
10:54 PM 82.0 °F 88.6 °F 75.0 °F 79% 30.00 in 10.0 mi NE 15.0 mph - N/A   Scattered Clouds
11:54 PM 82.0 °F 89.4 °F 75.9 °F 82% 29.99 in 10.0 mi NE 15.0 mph - N/A   Mostly Cloudy